Location: Chatou
(48.8898°N, 2.1586°E)
Time: 22:01:04
(UTC+00:00)

XW-2F - Visible Passes

Search period start: 01 December 2023 00:00
Search period end: 11 December 2023 00:00
Orbit: 400 x 406 km, 97.4° (Epoch: 01 December)

Date Brightness Start Highest point End Pass type
(mag) Time Alt. Az. Time Alt. Az. Time Alt. Az.
02 Dec ? 06:12:45 10° ENE 06:14:28 14° E 06:16:11 10° SE visible
04 Dec ? 06:06:00 10° ENE 06:07:01 11° E 06:08:01 10° ESE visible
05 Dec ? 06:46:17 10° NNE 06:49:11 35° E 06:52:04 10° SSE visible
07 Dec ? 06:37:54 10° NE 06:40:37 27° E 06:43:19 10° SSE visible
09 Dec ? 06:28:50 10° NE 06:31:16 20° E 06:33:41 10° SE visible
